This is the latest recevied weather packets stored in our database for station/object IK3ZGB. If no packets are shown the sender has not sent any weather packets the latest 10 day(s).
| Time | Temp. | Humidity | Pressure | Rain* | Wind** | Luminosity | Snow |
|---|---|---|---|---|---|---|---|
| 1777418591 | 17.78° C | 71% | 1017.5 hPa | - | - | - | - |
| 1777417991 | 18.33° C | 71% | 1017.5 hPa | - | - | - | - |
| 1777417392 | 17.78° C | 71% | 1017.5 hPa | - | - | - | - |
| 1777416792 | 18.33° C | 70% | 1017.4 hPa | - | - | - | - |
| 1777416190 | 18.33° C | 70% | 1017.6 hPa | - | - | - | - |
| 1777415591 | 18.33° C | 70% | 1017.2 hPa | - | - | - | - |
| 1777414992 | 18.33° C | 70% | 1017.4 hPa | - | - | - | - |
| 1777414392 | 18.33° C | 69% | 1017.5 hPa | - | - | - | - |
| 1777413791 | 18.89° C | 68% | 1017.2 hPa | - | - | - | - |
| 1777413193 | 18.89° C | 69% | 1017.5 hPa | - | - | - | - |
| 1777412592 | 18.89° C | 69% | 1017.3 hPa | - | - | - | - |
| 1777411990 | 18.89° C | 69% | 1017.2 hPa | - | - | - | - |
| 1777411392 | 18.89° C | 68% | 1017.3 hPa | - | - | - | - |
| 1777410791 | 18.89° C | 68% | 1017.3 hPa | - | - | - | - |
| 1777410190 | 18.89° C | 68% | 1017.1 hPa | - | - | - | - |
| 1777409593 | 18.89° C | 67% | 1016.8 hPa | - | - | - | - |
| 1777408992 | 18.89° C | 67% | 1016.9 hPa | - | - | - | - |
| 1777408392 | 19.44° C | 66% | 1016.7 hPa | - | - | - | - |
| 1777407791 | 19.44° C | 66% | 1016.9 hPa | - | - | - | - |
| 1777407191 | 19.44° C | 66% | 1016.8 hPa | - | - | - | - |
| 1777406591 | 19.44° C | 66% | 1016.7 hPa | - | - | - | - |
| 1777405992 | 19.44° C | 66% | 1016.4 hPa | - | - | - | - |
| 1777405392 | 20° C | 66% | 1016.6 hPa | - | - | - | - |
| 1777404791 | 20° C | 65% | 1016.7 hPa | - | - | - | - |
| 1777404191 | 20° C | 64% | 1016.1 hPa | - | - | - | - |
* Rain since midnight (hover to see other rain measurements)
** Current wind speed in m/s (hover to see current wind gust speed)